Satellite-Ground Cal/Val Site Overpasses Predictions

Prediction of Satellite NPP Overpassing Cal/Val Site: Antarctic Dome C

Ground Cal/Val Site Location: Latitude: -75.10, Longitude: 123.35; Satellite-Ground Site NADIR distance within 100 km.

Table of predicted overpasses for the next 14.0 days since TLE Epoch: 5/15/2021
Interval Starting Time Ending Time Minimum Distance Time Minimum Distance (km)
1 05/16/2021 14:54:20 05/16/2021 14:54:49 05/16/2021 14:54:34 20.53
2 05/17/2021 14:35:39 05/17/2021 14:35:54 05/17/2021 14:35:46 86.34
3 05/18/2021 07:37:12 05/18/2021 07:37:40 05/18/2021 07:37:26 33.66
4 05/19/2021 07:18:27 05/19/2021 07:18:46 05/19/2021 07:18:36 76.43
5 05/21/2021 15:00:43 05/21/2021 15:01:07 05/21/2021 15:00:55 57.84
6 05/22/2021 14:41:54 05/22/2021 14:42:19 05/22/2021 14:42:07 51.16
7 05/23/2021 07:43:35 05/23/2021 07:43:56 05/23/2021 07:43:45 69.25
8 05/24/2021 07:24:44 05/24/2021 07:25:11 05/24/2021 07:24:57 38.73
9 05/26/2021 15:07:12 05/26/2021 15:07:20 05/26/2021 15:07:16 95.86
